Time,TemperatureF,DewpointF,PressureIn,WindDirection,WindDirectionDegrees,WindSpeedMPH,WindSpeedGustMPH,Humidity,HourlyPrecipIn,Conditions,Clouds,dailyrainin,SoftwareType,DateUTC
2013-01-20 00:04:00,42.3,29.8,30.24,NNE,28,0.0,5.0,61,0.00,,,0.00,meteohub,2013-01-20 06:04:00,
2013-01-20 00:09:00,42.1,29.7,30.25,East,90,6.0,6.0,61,0.00,,,0.00,meteohub,2013-01-20 06:09:00,
2013-01-20 00:14:00,41.7,29.3,30.25,NNE,23,4.0,5.0,61,0.00,,,0.00,meteohub,2013-01-20 06:14:00,
2013-01-20 00:19:00,41.5,29.5,30.25,WNW,299,7.0,7.0,62,0.00,,,0.00,meteohub,2013-01-20 06:19:00,
2013-01-20 00:24:00,41.2,29.5,30.26,WNW,300,3.0,11.0,63,0.00,,,0.00,meteohub,2013-01-20 06:24:00,
2013-01-20 00:29:00,40.6,29.5,30.26,NNE,13,2.0,11.0,64,0.00,,,0.00,meteohub,2013-01-20 06:29:00,
2013-01-20 00:34:00,40.5,29.7,30.26,NNE,17,2.0,11.0,65,0.00,,,0.00,meteohub,2013-01-20 06:34:00,
2013-01-20 00:39:00,40.3,29.5,30.26,WNW,303,4.0,11.0,65,0.00,,,0.00,meteohub,2013-01-20 06:39:00,
2013-01-20 00:44:00,39.9,29.5,30.26,NNW,348,4.0,11.0,66,0.00,,,0.00,meteohub,2013-01-20 06:44:00,
2013-01-20 00:49:00,39.6,29.5,30.26,NNW,348,5.0,11.0,67,0.00,,,0.00,meteohub,2013-01-20 06:49:00,
2013-01-20 00:54:00,39.4,29.3,30.26,NE,50,3.0,11.0,67,0.00,,,0.00,meteohub,2013-01-20 06:54:00,
2013-01-20 00:59:00,39.0,29.3,30.27,North,9,2.0,11.0,68,0.00,,,0.00,meteohub,2013-01-20 06:59:00,
2013-01-20 01:04:00,38.8,29.1,30.27,NW,310,2.0,10.0,68,0.00,,,0.00,meteohub,2013-01-20 07:04:00,
2013-01-20 01:09:00,38.7,28.9,30.27,North,355,1.0,10.0,68,0.00,,,0.00,meteohub,2013-01-20 07:09:00,
2013-01-20 01:14:00,38.5,28.8,30.27,North,0,4.0,10.0,68,0.00,,,0.00,meteohub,2013-01-20 07:14:00,
2013-01-20 01:19:00,38.1,28.2,30.27,NW,325,2.0,10.0,67,0.00,,,0.00,meteohub,2013-01-20 07:19:00,
2013-01-20 01:24:00,37.9,27.7,30.27,WNW,296,2.0,10.0,66,0.00,,,0.00,meteohub,2013-01-20 07:24:00,
2013-01-20 01:29:00,37.8,27.9,30.27,NNW,339,4.0,10.0,67,0.00,,,0.00,meteohub,2013-01-20 07:29:00,
2013-01-20 01:34:00,37.8,27.5,30.27,NE,34,1.0,11.0,66,0.00,,,0.00,meteohub,2013-01-20 07:34:00,
2013-01-20 01:39:00,37.6,27.7,30.28,NW,324,1.0,11.0,67,0.00,,,0.00,meteohub,2013-01-20 07:39:00,
2013-01-20 01:44:00,37.4,27.5,30.28,NW,326,3.0,11.0,67,0.00,,,0.00,meteohub,2013-01-20 07:44:00,
2013-01-20 01:49:00,37.2,27.3,30.29,NW,317,2.0,5.0,67,0.00,,,0.00,meteohub,2013-01-20 07:49:00,
2013-01-20 01:54:00,37.0,27.5,30.29,NW,306,2.0,5.0,68,0.00,,,0.00,meteohub,2013-01-20 07:54:00,
2013-01-20 01:59:00,36.9,27.3,30.29,NW,313,1.0,5.0,68,0.00,,,0.00,meteohub,2013-01-20 07:59:00,
2013-01-20 02:04:00,36.7,27.1,30.29,NNW,328,1.0,5.0,68,0.00,,,0.00,meteohub,2013-01-20 08:04:00,
2013-01-20 02:09:00,36.3,27.1,30.29,NNW,329,1.0,5.0,69,0.00,,,0.00,meteohub,2013-01-20 08:09:00,
2013-01-20 02:14:00,36.1,27.0,30.29,NNW,340,1.0,5.0,69,0.00,,,0.00,meteohub,2013-01-20 08:14:00,
2013-01-20 02:19:00,36.0,26.8,30.29,NNW,335,7.0,7.0,69,0.00,,,0.00,meteohub,2013-01-20 08:19:00,
2013-01-20 02:24:00,35.4,25.2,30.30,NNW,337,1.0,4.0,66,0.00,,,0.00,meteohub,2013-01-20 08:24:00,
2013-01-20 02:29:00,35.2,24.3,30.30,NNW,327,6.0,6.0,64,0.00,,,0.00,meteohub,2013-01-20 08:29:00,
2013-01-20 02:34:00,34.9,23.2,30.30,North,5,3.0,12.0,62,0.00,,,0.00,meteohub,2013-01-20 08:34:00,
2013-01-20 02:39:00,34.9,23.2,30.30,NNW,335,3.0,12.0,62,0.00,,,0.00,meteohub,2013-01-20 08:39:00,
2013-01-20 02:44:00,34.5,22.1,30.30,NW,311,1.0,12.0,60,0.00,,,0.00,meteohub,2013-01-20 08:44:00,
2013-01-20 02:49:00,34.3,21.0,30.30,NNW,345,2.0,7.0,58,0.00,,,0.00,meteohub,2013-01-20 08:49:00,
2013-01-20 02:54:00,34.2,20.5,30.29,NNE,13,1.0,7.0,57,0.00,,,0.00,meteohub,2013-01-20 08:54:00,
2013-01-20 02:59:00,34.0,19.9,30.29,NW,324,4.0,7.0,56,0.00,,,0.00,meteohub,2013-01-20 08:59:00,
2013-01-20 03:04:00,33.6,19.2,30.29,NW,306,0.0,9.0,55,0.00,,,0.00,meteohub,2013-01-20 09:04:00,
2013-01-20 03:09:00,33.4,18.5,30.28,NNW,346,1.0,9.0,54,0.00,,,0.00,meteohub,2013-01-20 09:09:00,
2013-01-20 03:14:00,33.4,18.1,30.28,NW,323,0.0,9.0,53,0.00,,,0.00,meteohub,2013-01-20 09:14:00,
2013-01-20 03:19:00,33.3,18.0,30.29,North,355,1.0,6.0,53,0.00,,,0.00,meteohub,2013-01-20 09:19:00,
2013-01-20 03:24:00,32.9,17.6,30.29,NNW,342,2.0,6.0,53,0.00,,,0.00,meteohub,2013-01-20 09:24:00,
2013-01-20 03:29:00,32.7,17.4,30.29,NNW,329,0.0,6.0,53,0.00,,,0.00,meteohub,2013-01-20 09:29:00,
2013-01-20 03:34:00,32.5,17.2,30.29,North,355,0.0,6.0,53,0.00,,,0.00,meteohub,2013-01-20 09:34:00,
2013-01-20 03:39:00,32.5,17.8,30.30,NW,312,2.0,6.0,54,0.00,,,0.00,meteohub,2013-01-20 09:39:00,
2013-01-20 03:44:00,32.4,18.0,30.30,NW,308,3.0,6.0,55,0.00,,,0.00,meteohub,2013-01-20 09:44:00,
2013-01-20 03:49:00,32.2,17.4,30.30,NW,321,1.0,4.0,54,0.00,,,0.00,meteohub,2013-01-20 09:49:00,
2013-01-20 03:54:00,31.8,17.4,30.30,NW,318,2.0,4.0,55,0.00,,,0.00,meteohub,2013-01-20 09:54:00,
2013-01-20 03:59:00,31.6,17.8,30.29,NW,311,3.0,4.0,56,0.00,,,0.00,meteohub,2013-01-20 09:59:00,
2013-01-20 04:04:00,31.5,18.0,30.30,NW,314,1.0,4.0,57,0.00,,,0.00,meteohub,2013-01-20 10:04:00,
2013-01-20 04:09:00,31.5,18.0,30.30,NNW,343,4.0,4.0,57,0.00,,,0.00,meteohub,2013-01-20 10:09:00,
2013-01-20 04:14:00,31.3,17.8,30.30,NNW,336,2.0,4.0,57,0.00,,,0.00,meteohub,2013-01-20 10:14:00,
2013-01-20 04:19:00,31.1,18.1,30.30,NW,315,2.0,7.0,58,0.00,,,0.00,meteohub,2013-01-20 10:19:00,
2013-01-20 04:24:00,30.9,18.0,30.30,NNW,344,2.0,7.0,58,0.00,,,0.00,meteohub,2013-01-20 10:24:00,
2013-01-20 04:29:00,30.7,18.1,30.30,North,355,2.0,7.0,59,0.00,,,0.00,meteohub,2013-01-20 10:29:00,
2013-01-20 04:34:00,30.7,17.8,30.30,NE,44,2.0,5.0,58,0.00,,,0.00,meteohub,2013-01-20 10:34:00,
2013-01-20 04:39:00,30.6,18.0,30.30,NNW,348,3.0,5.0,59,0.00,,,0.00,meteohub,2013-01-20 10:39:00,
2013-01-20 04:44:00,30.4,17.8,30.30,North,355,3.0,5.0,59,0.00,,,0.00,meteohub,2013-01-20 10:44:00,
2013-01-20 04:49:00,30.4,17.8,30.30,North,10,1.0,5.0,59,0.00,,,0.00,meteohub,2013-01-20 10:49:00,
2013-01-20 04:54:00,30.0,17.4,30.31,North,355,0.0,5.0,59,0.00,,,0.00,meteohub,2013-01-20 10:54:00,
2013-01-20 04:59:00,29.8,17.2,30.31,NE,47,2.0,5.0,59,0.00,,,0.00,meteohub,2013-01-20 10:59:00,
2013-01-20 05:04:00,29.7,17.4,30.31,East,100,2.0,5.0,60,0.00,,,0.00,meteohub,2013-01-20 11:04:00,
2013-01-20 05:09:00,29.3,17.6,30.32,East,89,0.0,5.0,61,0.00,,,0.00,meteohub,2013-01-20 11:09:00,
2013-01-20 05:14:00,28.9,17.6,30.31,NNE,28,2.0,5.0,62,0.00,,,0.00,meteohub,2013-01-20 11:14:00,
2013-01-20 05:19:00,28.8,17.4,30.30,ENE,57,2.0,3.0,62,0.00,,,0.00,meteohub,2013-01-20 11:19:00,
2013-01-20 05:24:00,28.4,16.3,30.30,NE,52,6.0,6.0,60,0.00,,,0.00,meteohub,2013-01-20 11:24:00,
2013-01-20 05:29:00,28.2,16.2,30.30,NNE,14,3.0,3.0,60,0.00,,,0.00,meteohub,2013-01-20 11:29:00,
2013-01-20 05:34:00,28.2,16.2,30.30,NNW,348,5.0,5.0,60,0.00,,,0.00,meteohub,2013-01-20 11:34:00,
2013-01-20 05:39:00,28.0,16.0,30.30,NNE,30,3.0,3.0,60,0.00,,,0.00,meteohub,2013-01-20 11:39:00,
2013-01-20 05:44:00,27.9,16.2,30.30,NE,37,3.0,9.0,61,0.00,,,0.00,meteohub,2013-01-20 11:44:00,
2013-01-20 05:49:00,27.5,15.8,30.30,NNE,17,4.0,9.0,61,0.00,,,0.00,meteohub,2013-01-20 11:49:00,
2013-01-20 05:54:00,27.3,16.0,30.30,NE,36,2.0,9.0,62,0.00,,,0.00,meteohub,2013-01-20 11:54:00,
2013-01-20 05:59:00,27.0,15.6,30.30,NNE,12,3.0,9.0,62,0.00,,,0.00,meteohub,2013-01-20 11:59:00,
2013-01-20 06:04:00,26.8,15.8,30.30,NE,52,4.0,9.0,63,0.00,,,0.00,meteohub,2013-01-20 12:04:00,
2013-01-20 06:09:00,26.6,15.6,30.29,NNE,21,1.0,9.0,63,0.00,,,0.00,meteohub,2013-01-20 12:09:00,
2013-01-20 06:14:00,26.4,16.0,30.29,NNE,13,4.0,10.0,64,0.00,,,0.00,meteohub,2013-01-20 12:14:00,
2013-01-20 06:19:00,26.1,15.6,30.29,NE,53,4.0,10.0,64,0.00,,,0.00,meteohub,2013-01-20 12:19:00,
2013-01-20 06:24:00,26.1,15.6,30.28,North,9,6.0,10.0,64,0.00,,,0.00,meteohub,2013-01-20 12:24:00,
2013-01-20 06:29:00,25.9,15.4,30.29,NNE,20,4.0,10.0,64,0.00,,,0.00,meteohub,2013-01-20 12:29:00,
2013-01-20 06:34:00,25.9,15.1,30.29,North,5,3.0,10.0,63,0.00,,,0.00,meteohub,2013-01-20 12:34:00,
2013-01-20 06:39:00,25.7,14.9,30.30,NE,50,3.0,10.0,63,0.00,,,0.00,meteohub,2013-01-20 12:39:00,
2013-01-20 06:44:00,25.5,14.4,30.30,NNW,333,2.0,10.0,62,0.00,,,0.00,meteohub,2013-01-20 12:44:00,
2013-01-20 06:49:00,25.3,13.8,30.30,NE,38,2.0,8.0,61,0.00,,,0.00,meteohub,2013-01-20 12:49:00,
2013-01-20 06:54:00,25.3,13.8,30.30,NNE,31,3.0,8.0,61,0.00,,,0.00,meteohub,2013-01-20 12:54:00,
2013-01-20 06:59:00,25.2,13.3,30.30,NNE,31,5.0,8.0,60,0.00,,,0.00,meteohub,2013-01-20 12:59:00,
2013-01-20 07:04:00,25.2,13.3,30.30,NE,39,3.0,8.0,60,0.00,,,0.00,meteohub,2013-01-20 13:04:00,
2013-01-20 07:09:00,25.0,12.7,30.29,NNE,32,4.0,8.0,59,0.00,,,0.00,meteohub,2013-01-20 13:09:00,
2013-01-20 07:14:00,24.8,12.6,30.29,NE,41,3.0,8.0,59,0.00,,,0.00,meteohub,2013-01-20 13:14:00,
2013-01-20 07:19:00,24.6,12.4,30.29,NE,35,6.0,8.0,59,0.00,,,0.00,meteohub,2013-01-20 13:19:00,
2013-01-20 07:24:00,24.4,12.2,30.29,NNE,24,5.0,8.0,59,0.00,,,0.00,meteohub,2013-01-20 13:24:00,
2013-01-20 07:29:00,24.3,12.4,30.30,ENE,67,0.0,10.0,60,0.00,,,0.00,meteohub,2013-01-20 13:29:00,
2013-01-20 07:34:00,24.3,12.4,30.29,NE,50,4.0,10.0,60,0.00,,,0.00,meteohub,2013-01-20 13:34:00,
2013-01-20 07:39:00,24.1,11.8,30.30,North,349,3.0,10.0,59,0.00,,,0.00,meteohub,2013-01-20 13:39:00,
2013-01-20 07:45:00,24.1,11.8,30.30,NE,54,5.0,10.0,59,0.00,,,0.00,meteohub,2013-01-20 13:45:00,
2013-01-20 07:50:00,23.9,11.7,30.29,ENE,72,3.0,10.0,59,0.00,,,0.00,meteohub,2013-01-20 13:50:00,
2013-01-20 07:55:00,23.9,11.7,30.29,NE,43,4.0,10.0,59,0.00,,,0.00,meteohub,2013-01-20 13:55:00,
2013-01-20 08:00:00,23.7,11.5,30.29,NE,51,1.0,10.0,59,0.00,,,0.00,meteohub,2013-01-20 14:00:00,
2013-01-20 08:04:00,23.5,11.3,30.28,NE,36,3.0,10.0,59,0.00,,,0.00,meteohub,2013-01-20 14:04:00,
2013-01-20 08:09:00,23.7,11.5,30.28,NE,36,5.0,10.0,59,0.00,,,0.00,meteohub,2013-01-20 14:09:00,
2013-01-20 08:14:00,23.7,11.8,30.28,NNE,32,5.0,10.0,60,0.00,,,0.00,meteohub,2013-01-20 14:14:00,
2013-01-20 08:19:00,23.7,11.8,30.29,NE,39,0.0,10.0,60,0.00,,,0.00,meteohub,2013-01-20 14:19:00,
2013-01-20 08:24:00,23.9,11.7,30.29,NE,47,4.0,10.0,59,0.00,,,0.00,meteohub,2013-01-20 14:24:00,
2013-01-20 08:30:00,24.1,12.2,30.29,North,5,3.0,10.0,60,0.00,,,0.00,meteohub,2013-01-20 14:30:00,
2013-01-20 08:35:00,23.9,11.7,30.29,East,90,2.0,10.0,59,0.00,,,0.00,meteohub,2013-01-20 14:35:00,
2013-01-20 08:40:00,24.1,11.8,30.30,NE,45,9.0,10.0,59,0.00,,,0.00,meteohub,2013-01-20 14:40:00,
2013-01-20 08:45:00,23.9,11.7,30.30,NE,49,5.0,10.0,59,0.00,,,0.00,meteohub,2013-01-20 14:45:00,
2013-01-20 08:50:00,24.1,11.8,30.30,NNE,30,2.0,10.0,59,0.00,,,0.00,meteohub,2013-01-20 14:50:00,
2013-01-20 08:55:00,24.3,12.0,30.31,ESE,106,2.0,10.0,59,0.00,,,0.00,meteohub,2013-01-20 14:55:00,
2013-01-20 09:00:00,24.6,12.0,30.31,ESE,117,3.0,10.0,58,0.00,,,0.00,meteohub,2013-01-20 15:00:00,
2013-01-20 09:05:00,24.6,12.0,30.32,North,9,3.0,10.0,58,0.00,,,0.00,meteohub,2013-01-20 15:05:00,
2013-01-20 09:10:00,24.8,12.2,30.32,NE,43,1.0,10.0,58,0.00,,,0.00,meteohub,2013-01-20 15:10:00,
2013-01-20 09:15:00,25.0,12.4,30.32,ENE,73,2.0,10.0,58,0.00,,,0.00,meteohub,2013-01-20 15:15:00,
2013-01-20 09:20:00,25.3,12.2,30.32,NE,49,5.0,10.0,57,0.00,,,0.00,meteohub,2013-01-20 15:20:00,
2013-01-20 09:25:00,25.3,12.2,30.32,East,96,1.0,10.0,57,0.00,,,0.00,meteohub,2013-01-20 15:25:00,
2013-01-20 09:30:00,25.7,12.2,30.33,NNE,29,2.0,10.0,56,0.00,,,0.00,meteohub,2013-01-20 15:30:00,
2013-01-20 09:35:00,25.9,12.4,30.34,NNE,32,2.0,10.0,56,0.00,,,0.00,meteohub,2013-01-20 15:35:00,
2013-01-20 09:40:00,25.9,12.0,30.33,ENE,62,2.0,10.0,55,0.00,,,0.00,meteohub,2013-01-20 15:40:00,
2013-01-20 09:45:00,26.1,12.6,30.33,NE,45,1.0,10.0,56,0.00,,,0.00,meteohub,2013-01-20 15:45:00,
2013-01-20 09:50:00,26.1,12.6,30.33,NNE,26,2.0,6.0,56,0.00,,,0.00,meteohub,2013-01-20 15:50:00,
2013-01-20 09:55:00,26.2,12.2,30.34,NE,49,2.0,6.0,55,0.00,,,0.00,meteohub,2013-01-20 15:55:00,
2013-01-20 10:00:00,26.2,12.2,30.34,ENE,67,4.0,6.0,55,0.00,,,0.00,meteohub,2013-01-20 16:00:00,
2013-01-20 10:05:00,26.4,12.4,30.33,NE,48,5.0,6.0,55,0.00,,,0.00,meteohub,2013-01-20 16:05:00,
2013-01-20 10:10:00,26.4,12.4,30.33,NNE,27,5.0,6.0,55,0.00,,,0.00,meteohub,2013-01-20 16:10:00,
2013-01-20 10:15:00,26.4,12.4,30.34,NE,34,1.0,6.0,55,0.00,,,0.00,meteohub,2013-01-20 16:15:00,
2013-01-20 10:20:00,26.8,12.4,30.34,NE,39,2.0,10.0,54,0.00,,,0.00,meteohub,2013-01-20 16:20:00,
2013-01-20 10:25:00,27.0,12.6,30.34,North,5,2.0,10.0,54,0.00,,,0.00,meteohub,2013-01-20 16:25:00,
2013-01-20 10:30:00,27.5,13.1,30.34,NNE,17,2.0,10.0,54,0.00,,,0.00,meteohub,2013-01-20 16:30:00,
2013-01-20 10:35:00,27.9,12.6,30.34,ESE,106,3.0,10.0,52,0.00,,,0.00,meteohub,2013-01-20 16:35:00,
2013-01-20 10:40:00,28.0,12.7,30.34,North,10,2.0,10.0,52,0.00,,,0.00,meteohub,2013-01-20 16:40:00,
2013-01-20 10:45:00,28.4,13.1,30.34,ENE,76,1.0,7.0,52,0.00,,,0.00,meteohub,2013-01-20 16:45:00,
2013-01-20 10:50:00,28.9,13.1,30.34,NE,43,0.0,7.0,51,0.00,,,0.00,meteohub,2013-01-20 16:50:00,
2013-01-20 10:55:00,29.5,13.6,30.33,ESE,114,0.0,7.0,51,0.00,,,0.00,meteohub,2013-01-20 16:55:00,
2013-01-20 11:00:00,29.5,13.1,30.33,East,81,2.0,7.0,50,0.00,,,0.00,meteohub,2013-01-20 17:00:00,
2013-01-20 11:05:00,29.5,13.6,30.34,East,101,0.0,5.0,51,0.00,,,0.00,meteohub,2013-01-20 17:05:00,
2013-01-20 11:10:00,29.7,13.3,30.33,NNE,21,1.0,5.0,50,0.00,,,0.00,meteohub,2013-01-20 17:10:00,
2013-01-20 11:15:00,29.8,13.5,30.34,SE,125,3.0,5.0,50,0.00,,,0.00,meteohub,2013-01-20 17:15:00,
2013-01-20 11:20:00,29.8,13.5,30.34,NE,56,3.0,6.0,50,0.00,,,0.00,meteohub,2013-01-20 17:20:00,
2013-01-20 11:25:00,29.8,13.5,30.33,ENE,68,2.0,6.0,50,0.00,,,0.00,meteohub,2013-01-20 17:25:00,
2013-01-20 11:30:00,30.0,13.1,30.33,East,96,0.0,6.0,49,0.00,,,0.00,meteohub,2013-01-20 17:30:00,
2013-01-20 11:35:00,30.2,13.3,30.32,NW,326,3.0,5.0,49,0.00,,,0.00,meteohub,2013-01-20 17:35:00,
2013-01-20 11:40:00,30.6,13.6,30.32,ENE,60,2.0,5.0,49,0.00,,,0.00,meteohub,2013-01-20 17:40:00,
2013-01-20 11:45:00,31.1,13.6,30.31,ESE,116,1.0,5.0,48,0.00,,,0.00,meteohub,2013-01-20 17:45:00,
2013-01-20 11:50:00,31.1,13.6,30.32,East,92,4.0,5.0,48,0.00,,,0.00,meteohub,2013-01-20 17:50:00,
2013-01-20 11:55:00,30.7,13.3,30.31,ENE,59,2.0,5.0,48,0.00,,,0.00,meteohub,2013-01-20 17:55:00,
2013-01-20 12:00:00,30.7,13.8,30.31,NNE,32,2.0,5.0,49,0.00,,,0.00,meteohub,2013-01-20 18:00:00,
2013-01-20 12:05:00,31.3,13.8,30.31,NNE,22,2.0,6.0,48,0.00,,,0.00,meteohub,2013-01-20 18:05:00,
2013-01-20 12:10:00,31.6,13.6,30.31,NNE,19,4.0,6.0,47,0.00,,,0.00,meteohub,2013-01-20 18:10:00,
2013-01-20 12:15:00,31.8,13.8,30.31,NNE,23,0.0,6.0,47,0.00,,,0.00,meteohub,2013-01-20 18:15:00,
2013-01-20 12:20:00,32.4,14.4,30.30,NNE,13,2.0,6.0,47,0.00,,,0.00,meteohub,2013-01-20 18:20:00,
2013-01-20 12:25:00,32.7,13.6,30.30,NE,49,2.0,6.0,45,0.00,,,0.00,meteohub,2013-01-20 18:25:00,
2013-01-20 12:30:00,32.7,13.6,30.30,NE,48,2.0,8.0,45,0.00,,,0.00,meteohub,2013-01-20 18:30:00,
2013-01-20 12:35:00,32.7,13.3,30.29,NNE,33,1.0,8.0,44,0.00,,,0.00,meteohub,2013-01-20 18:35:00,
2013-01-20 12:40:00,33.1,14.0,30.29,NNE,20,2.0,8.0,45,0.00,,,0.00,meteohub,2013-01-20 18:40:00,
2013-01-20 12:45:00,33.1,13.5,30.29,NNE,30,1.0,8.0,44,0.00,,,0.00,meteohub,2013-01-20 18:45:00,
2013-01-20 12:50:00,33.4,13.8,30.29,NNE,16,5.0,10.0,44,0.00,,,0.00,meteohub,2013-01-20 18:50:00,
2013-01-20 12:55:00,33.4,13.8,30.29,NNE,32,3.0,10.0,44,0.00,,,0.00,meteohub,2013-01-20 18:55:00,
2013-01-20 13:00:00,33.6,14.0,30.29,NNE,28,4.0,10.0,44,0.00,,,0.00,meteohub,2013-01-20 19:00:00,
2013-01-20 13:05:00,34.0,14.4,30.29,NW,321,2.0,10.0,44,0.00,,,0.00,meteohub,2013-01-20 19:05:00,
2013-01-20 13:10:00,34.0,13.8,30.28,NNE,32,2.0,9.0,43,0.00,,,0.00,meteohub,2013-01-20 19:10:00,
2013-01-20 13:15:00,34.0,13.8,30.28,NE,36,2.0,9.0,43,0.00,,,0.00,meteohub,2013-01-20 19:15:00,
2013-01-20 13:20:00,34.0,13.3,30.28,NNE,30,3.0,9.0,42,0.00,,,0.00,meteohub,2013-01-20 19:20:00,
2013-01-20 13:25:00,33.6,12.9,30.29,NE,49,6.0,9.0,42,0.00,,,0.00,meteohub,2013-01-20 19:25:00,
2013-01-20 13:30:00,33.4,12.2,30.29,NNE,25,2.0,9.0,41,0.00,,,0.00,meteohub,2013-01-20 19:30:00,
2013-01-20 13:35:00,33.4,12.2,30.29,North,10,2.0,9.0,41,0.00,,,0.00,meteohub,2013-01-20 19:35:00,
2013-01-20 13:40:00,34.0,12.7,30.29,NE,42,3.0,10.0,41,0.00,,,0.00,meteohub,2013-01-20 19:40:00,
2013-01-20 13:45:00,34.0,13.3,30.29,NNE,27,8.0,10.0,42,0.00,,,0.00,meteohub,2013-01-20 19:45:00,
2013-01-20 13:50:00,33.6,13.5,30.29,ENE,57,3.0,10.0,43,0.00,,,0.00,meteohub,2013-01-20 19:50:00,
2013-01-20 13:55:00,33.4,12.7,30.29,NNW,331,9.0,11.0,42,0.00,,,0.00,meteohub,2013-01-20 19:55:00,
2013-01-20 14:00:00,33.3,13.1,30.29,North,351,4.0,11.0,43,0.00,,,0.00,meteohub,2013-01-20 20:00:00,
2013-01-20 14:05:00,32.9,12.9,30.30,NNW,335,5.0,11.0,43,0.00,,,0.00,meteohub,2013-01-20 20:05:00,
2013-01-20 14:10:00,32.7,12.2,30.30,NE,36,4.0,11.0,42,0.00,,,0.00,meteohub,2013-01-20 20:10:00,
2013-01-20 14:15:00,32.5,12.6,30.30,ENE,57,4.0,12.0,43,0.00,,,0.00,meteohub,2013-01-20 20:15:00,
2013-01-20 14:20:00,32.5,12.0,30.30,NNE,33,2.0,12.0,42,0.00,,,0.00,meteohub,2013-01-20 20:20:00,
2013-01-20 14:25:00,32.5,11.5,30.30,North,5,6.0,12.0,41,0.00,,,0.00,meteohub,2013-01-20 20:25:00,
2013-01-20 14:30:00,32.4,11.3,30.30,North,351,5.0,11.0,41,0.00,,,0.00,meteohub,2013-01-20 20:30:00,
2013-01-20 14:35:00,32.2,11.7,30.30,NE,44,4.0,11.0,42,0.00,,,0.00,meteohub,2013-01-20 20:35:00,
2013-01-20 14:40:00,32.2,12.2,30.30,NNE,27,6.0,11.0,43,0.00,,,0.00,meteohub,2013-01-20 20:40:00,
2013-01-20 14:45:00,32.2,12.2,30.30,NNE,21,5.0,10.0,43,0.00,,,0.00,meteohub,2013-01-20 20:45:00,
2013-01-20 14:50:00,32.2,12.2,30.30,NNW,345,9.0,10.0,43,0.00,,,0.00,meteohub,2013-01-20 20:50:00,
2013-01-20 14:55:00,32.2,11.7,30.30,NW,323,8.0,10.0,42,0.00,,,0.00,meteohub,2013-01-20 20:55:00,
2013-01-20 15:00:00,32.2,11.1,30.30,NNE,22,7.0,11.0,41,0.00,,,0.00,meteohub,2013-01-20 21:00:00,
2013-01-20 15:05:00,32.4,11.8,30.30,NE,53,3.0,11.0,42,0.00,,,0.00,meteohub,2013-01-20 21:05:00,
2013-01-20 15:10:00,32.2,11.7,30.30,NNE,24,3.0,11.0,42,0.00,,,0.00,meteohub,2013-01-20 21:10:00,
2013-01-20 15:15:00,32.2,11.7,30.30,NNE,23,4.0,13.0,42,0.00,,,0.00,meteohub,2013-01-20 21:15:00,
2013-01-20 15:20:00,32.4,11.8,30.30,ENE,63,4.0,13.0,42,0.00,,,0.00,meteohub,2013-01-20 21:20:00,
2013-01-20 15:25:00,32.5,12.0,30.31,NNW,346,5.0,13.0,42,0.00,,,0.00,meteohub,2013-01-20 21:25:00,
2013-01-20 15:30:00,32.5,12.0,30.30,NNW,340,4.0,10.0,42,0.00,,,0.00,meteohub,2013-01-20 21:30:00,
2013-01-20 15:35:00,32.5,12.0,30.30,NE,35,2.0,10.0,42,0.00,,,0.00,meteohub,2013-01-20 21:35:00,
2013-01-20 15:40:00,32.7,12.7,30.31,NW,312,2.0,10.0,43,0.00,,,0.00,meteohub,2013-01-20 21:40:00,
2013-01-20 15:45:00,32.7,12.2,30.31,NNW,338,3.0,10.0,42,0.00,,,0.00,meteohub,2013-01-20 21:45:00,
2013-01-20 15:50:00,32.7,12.7,30.31,NNE,19,1.0,10.0,43,0.00,,,0.00,meteohub,2013-01-20 21:50:00,
2013-01-20 15:55:00,32.7,12.7,30.31,NNE,32,4.0,10.0,43,0.00,,,0.00,meteohub,2013-01-20 21:55:00,
2013-01-20 16:00:00,32.7,12.7,30.31,NNE,21,11.0,11.0,43,0.00,,,0.00,meteohub,2013-01-20 22:00:00,
2013-01-20 16:05:00,32.7,12.7,30.31,NNE,29,2.0,7.0,43,0.00,,,0.00,meteohub,2013-01-20 22:05:00,
2013-01-20 16:10:00,32.7,12.7,30.30,NNE,32,3.0,7.0,43,0.00,,,0.00,meteohub,2013-01-20 22:10:00,
2013-01-20 16:15:00,32.9,12.9,30.30,NNE,17,4.0,11.0,43,0.00,,,0.00,meteohub,2013-01-20 22:15:00,
2013-01-20 16:20:00,32.9,12.9,30.31,NNW,343,5.0,11.0,43,0.00,,,0.00,meteohub,2013-01-20 22:20:00,
2013-01-20 16:25:00,32.5,12.0,30.31,North,5,5.0,11.0,42,0.00,,,0.00,meteohub,2013-01-20 22:25:00,
2013-01-20 16:30:00,32.2,11.7,30.31,NNE,17,6.0,11.0,42,0.00,,,0.00,meteohub,2013-01-20 22:30:00,
2013-01-20 16:35:00,31.6,11.7,30.31,ENE,76,7.0,11.0,43,0.00,,,0.00,meteohub,2013-01-20 22:35:00,
2013-01-20 16:40:00,31.6,11.7,30.31,NNW,334,2.0,11.0,43,0.00,,,0.00,meteohub,2013-01-20 22:40:00,
2013-01-20 16:45:00,31.5,11.5,30.31,NNW,344,6.0,11.0,43,0.00,,,0.00,meteohub,2013-01-20 22:45:00,
2013-01-20 16:50:00,31.3,11.8,30.31,NE,36,9.0,11.0,44,0.00,,,0.00,meteohub,2013-01-20 22:50:00,
2013-01-20 16:55:00,30.9,11.5,30.31,NNE,28,6.0,11.0,44,0.00,,,0.00,meteohub,2013-01-20 22:55:00,
2013-01-20 17:00:00,30.7,11.5,30.31,NNE,30,1.0,13.0,44,0.00,,,0.00,meteohub,2013-01-20 23:00:00,
2013-01-20 17:05:00,30.7,11.5,30.32,NW,325,2.0,13.0,44,0.00,,,0.00,meteohub,2013-01-20 23:05:00,
2013-01-20 17:10:00,30.7,10.9,30.32,NNW,337,1.0,13.0,43,0.00,,,0.00,meteohub,2013-01-20 23:10:00,
2013-01-20 17:15:00,30.7,10.9,30.32,NNE,29,2.0,12.0,43,0.00,,,0.00,meteohub,2013-01-20 23:15:00,
2013-01-20 17:20:00,30.6,11.3,30.32,NNW,327,7.0,12.0,44,0.00,,,0.00,meteohub,2013-01-20 23:20:00,
2013-01-20 17:26:00,30.6,11.3,30.32,NNW,343,4.0,12.0,44,0.00,,,0.00,meteohub,2013-01-20 23:26:00,
2013-01-20 17:31:00,30.6,10.8,30.32,NNE,32,3.0,11.0,43,0.00,,,0.00,meteohub,2013-01-20 23:31:00,
2013-01-20 17:36:00,30.4,10.6,30.33,NNW,347,7.0,11.0,43,0.00,,,0.00,meteohub,2013-01-20 23:36:00,
2013-01-20 17:41:00,30.2,10.4,30.33,North,355,3.0,11.0,43,0.00,,,0.00,meteohub,2013-01-20 23:41:00,
2013-01-20 17:46:00,30.2,10.9,30.33,NNE,16,9.0,11.0,44,0.00,,,0.00,meteohub,2013-01-20 23:46:00,
2013-01-20 17:51:00,30.0,10.8,30.34,NE,47,5.0,11.0,44,0.00,,,0.00,meteohub,2013-01-20 23:51:00,
2013-01-20 17:56:00,29.8,11.1,30.34,North,9,1.0,11.0,45,0.00,,,0.00,meteohub,2013-01-20 23:56:00,
2013-01-20 18:01:00,29.7,10.9,30.34,NE,46,5.0,11.0,45,0.00,,,0.00,meteohub,2013-01-21 00:01:00,
2013-01-20 18:06:00,29.5,10.8,30.34,NE,44,5.0,11.0,45,0.00,,,0.00,meteohub,2013-01-21 00:06:00,
2013-01-20 18:11:00,29.1,10.9,30.35,North,5,5.0,11.0,46,0.00,,,0.00,meteohub,2013-01-21 00:11:00,
2013-01-20 18:16:00,28.9,10.8,30.35,NNW,331,2.0,13.0,46,0.00,,,0.00,meteohub,2013-01-21 00:16:00,
2013-01-20 18:21:00,28.9,10.8,30.35,NNW,340,3.0,13.0,46,0.00,,,0.00,meteohub,2013-01-21 00:21:00,
2013-01-20 18:26:00,28.8,10.6,30.35,NNE,20,5.0,13.0,46,0.00,,,0.00,meteohub,2013-01-21 00:26:00,
2013-01-20 18:31:00,28.8,10.6,30.35,NNE,13,2.0,13.0,46,0.00,,,0.00,meteohub,2013-01-21 00:31:00,
2013-01-20 18:36:00,28.6,10.4,30.35,NNE,17,1.0,13.0,46,0.00,,,0.00,meteohub,2013-01-21 00:36:00,
2013-01-20 18:41:00,28.4,10.2,30.35,NNE,19,2.0,11.0,46,0.00,,,0.00,meteohub,2013-01-21 00:41:00,
2013-01-20 18:46:00,28.2,10.0,30.36,NE,46,4.0,11.0,46,0.00,,,0.00,meteohub,2013-01-21 00:46:00,
2013-01-20 18:51:00,28.0,10.4,30.36,NNE,30,1.0,11.0,47,0.00,,,0.00,meteohub,2013-01-21 00:51:00,
2013-01-20 18:56:00,27.9,10.2,30.36,North,0,2.0,11.0,47,0.00,,,0.00,meteohub,2013-01-21 00:56:00,
2013-01-20 19:01:00,27.9,10.2,30.37,NE,38,2.0,9.0,47,0.00,,,0.00,meteohub,2013-01-21 01:01:00,
2013-01-20 19:06:00,27.9,10.2,30.37,NNE,26,0.0,9.0,47,0.00,,,0.00,meteohub,2013-01-21 01:06:00,
2013-01-20 19:11:00,27.9,10.8,30.37,North,9,0.0,9.0,48,0.00,,,0.00,meteohub,2013-01-21 01:11:00,
2013-01-20 19:16:00,27.9,10.8,30.37,NNW,333,1.0,9.0,48,0.00,,,0.00,meteohub,2013-01-21 01:16:00,
2013-01-20 19:21:00,27.7,10.6,30.38,NNE,18,4.0,7.0,48,0.00,,,0.00,meteohub,2013-01-21 01:21:00,
2013-01-20 19:26:00,27.7,10.6,30.38,NNE,28,1.0,7.0,48,0.00,,,0.00,meteohub,2013-01-21 01:26:00,
2013-01-20 19:31:00,27.7,10.6,30.38,NNW,348,9.0,9.0,48,0.00,,,0.00,meteohub,2013-01-21 01:31:00,
2013-01-20 19:36:00,27.7,10.9,30.38,North,355,4.0,7.0,49,0.00,,,0.00,meteohub,2013-01-21 01:36:00,
2013-01-20 19:41:00,27.7,10.9,30.38,North,5,3.0,7.0,49,0.00,,,0.00,meteohub,2013-01-21 01:41:00,
2013-01-20 19:47:00,27.7,11.5,30.38,NE,35,3.0,7.0,50,0.00,,,0.00,meteohub,2013-01-21 01:47:00,
2013-01-20 19:52:00,27.5,11.7,30.39,NNW,329,5.0,10.0,51,0.00,,,0.00,meteohub,2013-01-21 01:52:00,
2013-01-20 19:57:00,27.3,11.7,30.39,WNW,287,2.0,10.0,51,0.00,,,0.00,meteohub,2013-01-21 01:57:00,
2013-01-20 20:03:00,27.1,11.8,30.38,NE,36,3.0,11.0,52,0.00,,,0.00,meteohub,2013-01-21 02:03:00,
2013-01-20 20:08:00,27.0,12.0,30.38,NNE,17,1.0,11.0,53,0.00,,,0.00,meteohub,2013-01-21 02:08:00,
2013-01-20 20:13:00,26.8,12.4,30.38,NNW,331,2.0,11.0,54,0.00,,,0.00,meteohub,2013-01-21 02:13:00,
2013-01-20 20:18:00,26.8,12.4,30.39,NNW,335,4.0,8.0,54,0.00,,,0.00,meteohub,2013-01-21 02:18:00,
2013-01-20 20:23:00,26.4,12.0,30.39,NNW,329,3.0,8.0,54,0.00,,,0.00,meteohub,2013-01-21 02:23:00,
2013-01-20 20:28:00,26.2,12.2,30.39,NNW,333,1.0,8.0,55,0.00,,,0.00,meteohub,2013-01-21 02:28:00,
2013-01-20 20:33:00,26.1,12.0,30.39,NW,323,1.0,12.0,55,0.00,,,0.00,meteohub,2013-01-21 02:33:00,
2013-01-20 20:38:00,26.1,11.7,30.39,NW,306,2.0,12.0,54,0.00,,,0.00,meteohub,2013-01-21 02:38:00,
2013-01-20 20:43:00,25.9,12.0,30.39,North,355,2.0,12.0,55,0.00,,,0.00,meteohub,2013-01-21 02:43:00,
2013-01-20 20:48:00,25.9,11.5,30.39,NNW,330,3.0,12.0,54,0.00,,,0.00,meteohub,2013-01-21 02:48:00,
2013-01-20 20:53:00,25.7,10.9,30.39,North,355,2.0,10.0,53,0.00,,,0.00,meteohub,2013-01-21 02:53:00,
2013-01-20 20:58:00,25.5,10.8,30.40,NNW,329,2.0,10.0,53,0.00,,,0.00,meteohub,2013-01-21 02:58:00,
2013-01-20 21:03:00,25.5,10.8,30.40,NNE,15,0.0,12.0,53,0.00,,,0.00,meteohub,2013-01-21 03:03:00,
2013-01-20 21:08:00,25.3,10.6,30.40,NNW,343,1.0,12.0,53,0.00,,,0.00,meteohub,2013-01-21 03:08:00,
2013-01-20 21:13:00,25.3,10.9,30.40,WNW,298,2.0,12.0,54,0.00,,,0.00,meteohub,2013-01-21 03:13:00,
2013-01-20 21:18:00,25.3,10.9,30.40,NNW,338,3.0,9.0,54,0.00,,,0.00,meteohub,2013-01-21 03:18:00,
2013-01-20 21:25:00,25.2,10.9,30.40,NNW,336,6.0,9.0,54,0.00,,,0.00,meteohub,2013-01-21 03:25:00,
2013-01-20 21:30:00,24.8,10.0,30.39,NNW,342,1.0,9.0,53,0.00,,,0.00,meteohub,2013-01-21 03:30:00,
2013-01-20 21:35:00,24.6,9.9,30.39,NW,307,0.0,11.0,53,0.00,,,0.00,meteohub,2013-01-21 03:35:00,
2013-01-20 21:39:00,24.6,10.4,30.39,NW,323,2.0,11.0,54,0.00,,,0.00,meteohub,2013-01-21 03:39:00,
2013-01-20 21:44:00,24.6,10.8,30.40,NNE,21,1.0,11.0,55,0.00,,,0.00,meteohub,2013-01-21 03:44:00,
2013-01-20 21:49:00,24.6,10.8,30.40,NNE,13,4.0,8.0,55,0.00,,,0.00,meteohub,2013-01-21 03:49:00,
2013-01-20 21:55:00,24.6,10.8,30.40,NW,307,2.0,8.0,55,0.00,,,0.00,meteohub,2013-01-21 03:55:00,
2013-01-20 22:00:00,24.6,11.1,30.40,NW,312,3.0,8.0,56,0.00,,,0.00,meteohub,2013-01-21 04:00:00,
2013-01-20 22:05:00,24.3,10.8,30.40,NW,304,2.0,9.0,56,0.00,,,0.00,meteohub,2013-01-21 04:05:00,
2013-01-20 22:10:00,24.1,11.1,30.41,NW,311,2.0,9.0,57,0.00,,,0.00,meteohub,2013-01-21 04:10:00,
2013-01-20 22:15:00,24.1,11.5,30.41,NW,305,1.0,9.0,58,0.00,,,0.00,meteohub,2013-01-21 04:15:00,
2013-01-20 22:20:00,24.1,11.8,30.41,NW,310,1.0,9.0,59,0.00,,,0.00,meteohub,2013-01-21 04:20:00,
2013-01-20 22:25:00,23.9,11.3,30.41,WNW,294,7.0,9.0,58,0.00,,,0.00,meteohub,2013-01-21 04:25:00,
2013-01-20 22:30:00,23.7,11.5,30.42,NW,324,6.0,9.0,59,0.00,,,0.00,meteohub,2013-01-21 04:30:00,
2013-01-20 22:35:00,23.7,11.5,30.42,WNW,302,2.0,11.0,59,0.00,,,0.00,meteohub,2013-01-21 04:35:00,
2013-01-20 22:40:00,23.5,11.7,30.42,North,355,6.0,11.0,60,0.00,,,0.00,meteohub,2013-01-21 04:40:00,
2013-01-20 22:45:00,23.4,11.5,30.43,NNW,340,1.0,11.0,60,0.00,,,0.00,meteohub,2013-01-21 04:45:00,
2013-01-20 22:50:00,23.2,11.3,30.43,NW,315,3.0,12.0,60,0.00,,,0.00,meteohub,2013-01-21 04:50:00,
2013-01-20 22:55:00,22.8,11.3,30.43,NNE,14,2.0,12.0,61,0.00,,,0.00,meteohub,2013-01-21 04:55:00,
2013-01-20 23:02:00,22.8,10.9,30.43,NW,312,1.0,12.0,60,0.00,,,0.00,meteohub,2013-01-21 05:02:00,
2013-01-20 23:04:00,22.8,10.9,30.43,NNW,329,3.0,12.0,60,0.00,,,0.00,meteohub,2013-01-21 05:04:00,
2013-01-20 23:05:00,22.8,11.3,30.43,NNW,330,2.0,12.0,61,0.00,,,0.00,meteohub,2013-01-21 05:05:00,
2013-01-20 23:10:00,22.6,10.8,30.43,NW,325,2.0,12.0,60,0.00,,,0.00,meteohub,2013-01-21 05:10:00,
2013-01-20 23:15:00,22.5,10.8,30.43,NNW,346,1.0,12.0,60,0.00,,,0.00,meteohub,2013-01-21 05:15:00,
2013-01-20 23:20:00,22.5,11.1,30.43,NW,323,2.0,10.0,61,0.00,,,0.00,meteohub,2013-01-21 05:20:00,
2013-01-20 23:25:00,22.3,10.9,30.43,NNE,12,1.0,10.0,61,0.00,,,0.00,meteohub,2013-01-21 05:25:00,
2013-01-20 23:30:00,22.3,10.9,30.43,WNW,301,4.0,10.0,61,0.00,,,0.00,meteohub,2013-01-21 05:30:00,
2013-01-20 23:35:00,22.1,10.8,30.43,WNW,299,4.0,7.0,61,0.00,,,0.00,meteohub,2013-01-21 05:35:00,
2013-01-20 23:40:00,21.7,10.4,30.43,NW,314,4.0,7.0,61,0.00,,,0.00,meteohub,2013-01-21 05:40:00,
2013-01-20 23:45:00,21.6,10.2,30.43,NW,308,2.0,7.0,61,0.00,,,0.00,meteohub,2013-01-21 05:45:00,
2013-01-20 23:50:00,21.4,10.0,30.43,NNW,342,1.0,8.0,61,0.00,,,0.00,meteohub,2013-01-21 05:50:00,
2013-01-20 23:55:00,21.6,10.6,30.43,NW,325,0.0,8.0,62,0.00,,,0.00,meteohub,2013-01-21 05:55:00,